H-2A R/B (38341 NORAD) Tracking and Keplerian Element Data

This shows tracking and keplerian element data for the satellite.

Feedback or suggestion? Click here.




ElementValue
Catalog38341
NameH-2A R/B
Epoch Orbit50539
Epoch Day261.55995901
Epoch Year2021
RAAN93.4271
Inclination98.5275
Eccentricity0.0054829
Argument of Perigee199.3645
Mean Anonmoly160.5485
Mean Motion14.8427299
Decay Rate1.79E-06
L11 38341U 12025E 21261.55995901 .00000179 00000-0 28480-4 0 9997
L22 38341 98.5275 93.4271 0054829 199.3645 160.5485 14.84272990505395

Live tracking and technical data element details for H-2A R/B (NORAD 38341). H-2A R/B can be tracked NOW for your location showing map with azimuth and elevation plus other details from your city location.

Track the satellite on the map from your city or location and see movement details for azimuth, elevation, latitude, longitude, range, height, and movement on the map or in text.







IsCatalogInMostPopularTable: catalog: 38341, numindb: 648
Update: records affected: 1



GetName: 38341 H-2A R/B

Hit Count: updated at: Sat, 25 Sep 2021 23:49:32 GMT